Weather in Ossora

Russia / Kamchatka Krai     59°15′05″N   163°04′28″E
temp.,
°C
wind,
m/s
gust,
m/s
humid.,
%
clouds,
%
prec.,
mm/h
press.,
hPa
HPBL,
m
1 march, mon
mon100:00−15n81687100 0.1 1005545
03:00−18n81396100 1.0 1001328
06:00−19nnw91495100 2.7 998297
09:00−19nnw81496100 1.7 996347
12:00−19nnw71394100 2.7 994296
15:00−17nnw71292100 0.7 993322
18:00−19nnw61086100 0.9 994280
21:00−21nnw3681100 0.0 997173
2 march, tue
tue200:00−22nw3481100 0.0 99872
03:00−22nw3381100 0.0 100146
06:00−23nw3378100 0.0 100423
09:00−24nw337690 0.0 100823
12:00−19nw337791 0.0 1011171
15:00−17nw237195 0.0 1014374
18:00−20w117986 0.0 101720
21:00−20wnw227698 0.0 102120
3 march, wed
wed300:00−19w227499 0.0 102320
03:00−22w227255 0.0 102520
06:00−23wnw117128 0.0 102420
09:00−21n117068 0.0 102320
12:00−17ene227084 0.0 1019153
15:00−16n3596100 0.7 1012245
18:00−12nne4798100 4.3 1001269
21:00−5nne111796100 9.3 989642
4 march, thu
thu400:00−10nw4596100 16.8 980110
03:00−9nw2395100 2.6 978120
06:00−10w1293100 3.5 97826
09:00−13wnw4866100 0.1 982395
12:00−15sw41068100 0.1 985996
15:00−16sw596846 0.0 985644
18:00−18sw9147024 0.0 986340
21:00−19sw914721 0.0 986316
5 march, fri
fri500:00−20sw916711 0.0 987397
03:00−21sw8147193 0.0 988438
06:00−22sw697297 0.0 990209
09:00−24wsw5677100 0.0 99295
12:00−22sw61569100 0.0 9961091
15:00−19sw5166756 0.0 9981261
18:00−21sw467327 0.0 99993
21:00−27nnw34750 0.0 100023